TimeCST,TemperatureF,Dew PointF,Humidity,Sea Level PressureIn,VisibilityMPH,Wind Direction,Wind SpeedMPH,Gust SpeedMPH,PrecipitationIn,Events,Conditions,WindDirDegrees,DateUTC
12:14 AM,17.6,12.2,79,30.16,10.0,SSE,11.5,-,N/A,,Overcast,160,2013-01-18 06:14:00
12:34 AM,17.6,12.2,79,30.14,10.0,SSE,12.7,-,N/A,,Mostly Cloudy,160,2013-01-18 06:34:00
12:54 AM,17.6,14.0,86,30.12,10.0,South,15.0,-,N/A,,Scattered Clouds,170,2013-01-18 06:54:00
1:12 AM,19.4,15.8,86,30.11,10.0,SSE,15.0,-,N/A,,Scattered Clouds,160,2013-01-18 07:12:00
1:34 AM,19.4,15.8,86,30.08,10.0,South,17.3,-,N/A,,Clear,170,2013-01-18 07:34:00
1:55 AM,19.4,15.8,86,30.06,10.0,South,17.3,23.0,N/A,,Mostly Cloudy,180,2013-01-18 07:55:00
2:14 AM,19.4,17.6,93,30.04,10.0,South,15.0,-,N/A,,Mostly Cloudy,180,2013-01-18 08:14:00
2:34 AM,21.2,19.4,93,30.01,10.0,SSW,13.8,21.9,N/A,,Overcast,200,2013-01-18 08:34:00
2:55 AM,23.0,21.2,93,30.01,10.0,South,11.5,21.9,N/A,,Scattered Clouds,180,2013-01-18 08:55:00
3:14 AM,23.0,21.2,93,30.01,10.0,South,13.8,-,N/A,,Scattered Clouds,170,2013-01-18 09:14:00
3:34 AM,23.0,21.2,93,30.00,10.0,SSE,10.4,-,N/A,,Mostly Cloudy,150,2013-01-18 09:34:00
3:54 AM,23.0,21.2,93,29.98,10.0,SSE,9.2,-,N/A,,Overcast,160,2013-01-18 09:54:00
4:14 AM,24.8,21.2,86,29.96,10.0,South,10.4,-,N/A,,Mostly Cloudy,170,2013-01-18 10:14:00
4:34 AM,24.8,23.0,93,29.94,10.0,South,10.4,-,N/A,,Mostly Cloudy,170,2013-01-18 10:34:00
4:54 AM,24.8,23.0,93,29.93,10.0,South,6.9,-,N/A,,Scattered Clouds,180,2013-01-18 10:54:00
5:14 AM,24.8,23.0,93,29.91,10.0,South,8.1,-,N/A,,Scattered Clouds,170,2013-01-18 11:14:00
5:34 AM,24.8,23.0,93,29.90,10.0,South,8.1,-,N/A,,Mostly Cloudy,190,2013-01-18 11:34:00
5:54 AM,24.8,24.8,100,29.88,10.0,South,6.9,-,N/A,,Scattered Clouds,180,2013-01-18 11:54:00
6:14 AM,26.6,24.8,93,29.87,10.0,South,5.8,-,N/A,,Clear,190,2013-01-18 12:14:00
6:34 AM,26.6,24.8,93,29.86,10.0,SSW,4.6,-,N/A,,Scattered Clouds,200,2013-01-18 12:34:00
6:54 AM,28.4,26.6,93,29.84,10.0,SSW,8.1,-,N/A,,Clear,200,2013-01-18 12:54:00
7:14 AM,28.4,26.6,93,29.82,10.0,SSW,8.1,-,N/A,,Scattered Clouds,210,2013-01-18 13:14:00
7:34 AM,28.4,26.6,93,29.82,10.0,SSW,4.6,-,N/A,,Clear,210,2013-01-18 13:34:00
7:54 AM,28.4,26.6,93,29.81,10.0,SW,6.9,-,N/A,,Clear,220,2013-01-18 13:54:00
8:14 AM,30.2,26.6,86,29.80,10.0,SSW,5.8,-,N/A,,Clear,210,2013-01-18 14:14:00
8:34 AM,28.4,26.6,93,29.80,10.0,SW,4.6,-,N/A,,Clear,220,2013-01-18 14:34:00
8:54 AM,28.4,26.6,93,29.80,10.0,WSW,8.1,-,N/A,,Clear,240,2013-01-18 14:54:00
9:14 AM,28.4,24.8,86,29.80,10.0,WSW,6.9,-,N/A,,Clear,240,2013-01-18 15:14:00
9:34 AM,30.2,26.6,86,29.79,10.0,WSW,6.9,-,N/A,,Clear,250,2013-01-18 15:34:00
9:54 AM,33.8,26.6,75,29.79,10.0,West,8.1,-,N/A,,Clear,260,2013-01-18 15:54:00
10:14 AM,33.8,26.6,75,29.80,10.0,West,8.1,-,N/A,,Clear,260,2013-01-18 16:14:00
10:34 AM,35.6,26.6,70,29.79,10.0,Calm,Calm,-,N/A,,Clear,260,2013-01-18 16:34:00
10:54 AM,35.6,26.6,70,29.79,10.0,WNW,5.8,-,N/A,,Clear,290,2013-01-18 16:54:00
11:15 AM,37.4,26.6,65,29.78,10.0,West,8.1,-,N/A,,Clear,280,2013-01-18 17:15:00
11:34 AM,37.4,28.4,70,29.78,10.0,West,9.2,-,N/A,,Clear,280,2013-01-18 17:34:00
11:54 AM,37.4,28.4,70,29.76,10.0,West,8.1,-,N/A,,Clear,280,2013-01-18 17:54:00
12:15 PM,39.2,28.4,65,29.75,10.0,WNW,10.4,-,N/A,,Clear,290,2013-01-18 18:15:00
12:34 PM,39.2,28.4,65,29.75,10.0,WNW,9.2,-,N/A,,Clear,300,2013-01-18 18:34:00
12:54 PM,39.2,28.4,65,29.75,10.0,NW,10.4,16.1,N/A,,Clear,310,2013-01-18 18:54:00
1:15 PM,39.2,28.4,65,29.74,10.0,NW,9.2,-,N/A,,Clear,310,2013-01-18 19:15:00
1:34 PM,37.4,28.4,70,29.75,10.0,WNW,8.1,-,N/A,,Clear,300,2013-01-18 19:34:00
1:54 PM,39.2,28.4,65,29.74,10.0,WNW,8.1,-,N/A,,Clear,300,2013-01-18 19:54:00
2:14 PM,39.2,28.4,65,29.75,10.0,WNW,9.2,-,N/A,,Clear,290,2013-01-18 20:14:00
2:34 PM,39.2,30.2,70,29.76,10.0,WNW,6.9,-,N/A,,Clear,300,2013-01-18 20:34:00
2:54 PM,39.2,30.2,70,29.76,10.0,NW,8.1,-,N/A,,Clear,320,2013-01-18 20:54:00
3:14 PM,39.2,30.2,70,29.77,10.0,NW,9.2,-,N/A,,Clear,320,2013-01-18 21:14:00
3:34 PM,39.2,30.2,70,29.77,10.0,NW,6.9,-,N/A,,Clear,310,2013-01-18 21:34:00
3:54 PM,39.2,30.2,70,29.77,10.0,NW,6.9,-,N/A,,Clear,320,2013-01-18 21:54:00
4:14 PM,39.2,30.2,70,29.77,10.0,WNW,5.8,-,N/A,,Clear,300,2013-01-18 22:14:00
4:34 PM,37.4,30.2,75,29.78,10.0,NW,5.8,-,N/A,,Clear,310,2013-01-18 22:34:00
4:54 PM,37.4,30.2,75,29.79,10.0,WNW,4.6,-,N/A,,Clear,300,2013-01-18 22:54:00
5:14 PM,35.6,30.2,81,29.79,10.0,WNW,4.6,-,N/A,,Clear,290,2013-01-18 23:14:00
5:34 PM,35.6,30.2,81,29.79,10.0,WNW,4.6,-,N/A,,Clear,290,2013-01-18 23:34:00
5:54 PM,35.6,30.2,81,29.79,10.0,NW,5.8,-,N/A,,Clear,310,2013-01-18 23:54:00
6:14 PM,35.6,30.2,81,29.80,10.0,WNW,3.5,-,N/A,,Clear,300,2013-01-19 00:14:00
6:34 PM,33.8,30.2,87,29.80,10.0,Calm,Calm,-,N/A,,Clear,0,2013-01-19 00:34:00
6:54 PM,33.8,30.2,87,29.80,10.0,West,5.8,-,N/A,,Clear,280,2013-01-19 00:54:00
7:14 PM,33.8,30.2,87,29.81,10.0,West,4.6,-,N/A,,Clear,280,2013-01-19 01:14:00
7:34 PM,33.8,30.2,87,29.81,10.0,West,5.8,-,N/A,,Clear,270,2013-01-19 01:34:00
7:54 PM,32.0,28.4,87,29.81,10.0,West,6.9,-,N/A,,Clear,270,2013-01-19 01:54:00
8:14 PM,32.0,28.4,87,29.80,10.0,West,6.9,-,N/A,,Clear,260,2013-01-19 02:14:00
8:34 PM,32.0,28.4,87,29.79,10.0,West,6.9,-,N/A,,Clear,260,2013-01-19 02:34:00
8:54 PM,33.8,30.2,87,29.77,10.0,West,5.8,-,N/A,,Clear,280,2013-01-19 02:54:00
9:14 PM,32.0,28.4,87,29.78,10.0,West,8.1,-,N/A,,Clear,260,2013-01-19 03:14:00
9:34 PM,32.0,28.4,87,29.77,10.0,West,6.9,-,N/A,,Clear,270,2013-01-19 03:34:00
9:54 PM,32.0,28.4,87,29.77,10.0,West,5.8,-,N/A,,Clear,270,2013-01-19 03:54:00
10:14 PM,32.0,28.4,87,29.77,10.0,West,6.9,-,N/A,,Clear,270,2013-01-19 04:14:00
10:34 PM,32.0,28.4,87,29.78,10.0,West,4.6,-,N/A,,Clear,260,2013-01-19 04:34:00
10:54 PM,32.0,28.4,87,29.77,10.0,SW,3.5,-,N/A,,Clear,230,2013-01-19 04:54:00
11:14 PM,30.2,28.4,93,29.77,10.0,WSW,8.1,-,N/A,,Clear,240,2013-01-19 05:14:00
11:34 PM,32.0,28.4,87,29.76,10.0,WSW,5.8,-,N/A,,Clear,240,2013-01-19 05:34:00
11:55 PM,30.2,28.4,93,29.75,10.0,SW,4.6,-,N/A,,Clear,220,2013-01-19 05:55:00